SCOUT X-4 R/B, 1739

Orbit data source: Space-Track

SCOUT X-4 R/B, 1739 is space debris in LEO originally from a launch on Fri, 19 Nov 1965 UTC launched from the Wallops Island (WLPIS). Debris objects in space refer to the collection of defunct objects orbiting the Earth. Examples of debris include non-operational satellites, rocket bodies, and fragments generated from explosions, collisions, or faulty payload assembly.

Loading next visibility...
Identifier
1739, 1965-093B
Orbit
LEO
Country
Flag of USUS
Related business
Manufacturer
ABL
Mission
Spacecraft
Bus & Motor
ALTAIR, Unknown motor
Mass
33 kg wet, 33 kg dry
Launch date (UTC)
1965-11-19 (60 years ago)
Launch vehicle
Unknown
Launch site
Wallops Island (WLPIS)
Object type
Payload
Rocket body
Debris
Shape & HBR
Unknown
Radar Cross Section
Medium (>0.1 m² and <1 m²)

Expand to show TLE details & history
Last TLE update: 19 hours ago

TLE from 19 hours ago
0 SCOUT X-4 R/B
1 01739U 65093B   26129.14019234  .00000246  00000-0  91365-4 0  9997
2 01739  59.7048 351.0241 0073212 218.5512 141.0291 14.55199879164647
Epoch: 2026-05-09T03:21Z
TLE epoch observation values (Epoch: 2026-05-09T03:21:52.618Z)
Latitude
-0.00004°
Longitude
73.59293°
Altitude
750.727 km
Speed
7.459 km/s
True Right ascension
23h 24m 05s
True Declination
0° 00' 00"
Sunlit
Object was in daylight at epoch
Visualization orbit readout
Latitude
Unknown
Longitude
Unknown
Altitude
Unknown
Speed
Unknown
Apparent Right ascension
Unknown
Apparent Declination
Unknown
Sunlit
N/A
Visualization observer readout
Local Sidereal Time
06:43:26
Azimuth
Unknown
Elevation
Unknown
Doppler factor
Unknown
Orbital elements
Apogee altitude
759.864 km
Perigee altitude
656.106 km
Semi-major axis
7,086.122 km
Eccentricity
0.00732
Inclination
59.7048°
RAAN
351.0241°
Arg. of periapsis
218.5512°
True anomaly
141.553°
Mean anomaly
141.0291°
Eccentric anomaly
141.29142°
Mean motion
3.63857 °/min
Orbital period
98.94 mins
BSTAR
0.000091365
Loading maneuver chart data...
Computing Atmospheric mass density...
Loading historical data...
Loading historical data...
Loading historical data...
Loading historical data...
Loading historical data...
Loading historical data...
Loading historical data...
Other satellites on launch #93 in the year 1965 (1965-11-19 UTC)

Documentation

Showing up to 5 results
|